Stations météo

réclame
Mon MeteoGroup
Chieming, Allemagne (10982): Température de l'air & dewpoint: 16.10.2017 03:00:00 - 22.10.2017 03:00:00 (CEST)Chieming, Allemagne (10982): Température de l'air 5cm & Température de l'air -5cm: 16.10.2017 03:00:00 - 22.10.2017 03:00:00 (CEST)Chieming, Allemagne (10982): Température de l'air -20cm & Température de l'air -100cm: 16.10.2017 03:00:00 - 22.10.2017 03:00:00 (CEST)Chieming, Allemagne (10982): Vitesse du vent & gusts: 16.10.2017 03:00:00 - 22.10.2017 03:00:00 (CEST)Chieming, Allemagne (10982): Direction du vent: 16.10.2017 03:00:00 - 22.10.2017 03:00:00 (CEST)Chieming, Allemagne (10982): reduced air pressure: 16.10.2017 03:00:00 - 22.10.2017 03:00:00 (CEST)Chieming, Allemagne (10982): visibility: 16.10.2017 03:00:00 - 22.10.2017 03:00:00 (CEST)Chieming, Allemagne (10982): Ensoleillement: 16.10.2017 03:00:00 - 22.10.2017 03:00:00 (CEST)Chieming, Allemagne (10982): Quantités de précipitations: 16.10.2017 03:00:00 - 22.10.2017 03:00:00 (CEST)
Date & Time tt [°C] td [°C] tt 5cm [°C] tt -5cm [°C] tt -20cm [°C] tt -100cm [°C] ff [km/h] ff [knt] fx [km/h] fx [knt] dd ppp [hPa] vv [km] sd [min] rr [mm]
22.10.2017 03:00:00 - - - - - - - - - - - - - - -
22.10.2017 02:00:00 11,9 9,4 11,0 11,2 13,0 13,9 29 16 47 26 W 1019,0 45 0 0,0
22.10.2017 01:00:00 10,5 9,3 9,2 11,0 13,1 13,9 7 4 11 6 SW 1016,6 19 0 0,0
22.10.2017 00:00:00 10,9 9,4 9,1 11,1 13,4 13,9 6 3 11 6 ENE 1015,8 18 0 0,0
21.10.2017 23:00:00 10,4 9,0 7,9 11,4 13,6 13,9 8 4 11 6 ENE 1015,7 16 0 0,0
21.10.2017 22:00:00 11,4 9,6 8,4 11,9 13,8 13,9 4 2 11 6 NE 1015,8 18 0 0,0
21.10.2017 21:00:00 11,9 10,7 8,8 12,5 14,1 13,9 5 3 12 7 E 1016,3 14 0 0,0
21.10.2017 20:00:00 13,0 11,5 10,4 13,2 14,2 13,9 6 4 11 6 ESE 1016,5 14 0 0,0
21.10.2017 19:00:00 13,3 11,9 11,3 14,2 14,2 13,9 7 4 9 5 ENE 1016,7 14 0 0,0
21.10.2017 18:00:00 15,3 12,8 13,2 15,3 14,1 13,9 6 4 8 4 ENE 1016,0 21 0 0,0
21.10.2017 17:00:00 18,0 10,9 17,1 16,1 13,9 13,9 2 1 8 4 WNW 1015,7 29 18 0,0
21.10.2017 16:00:00 18,0 10,5 17,7 16,6 13,5 13,9 5 3 10 6 SSW 1015,9 33 19 0,0
21.10.2017 15:00:00 17,6 11,7 19,1 16,5 13,0 13,9 7 4 9 5 E 1016,4 28 51 0,0
21.10.2017 14:00:00 17,0 10,9 18,2 15,2 12,7 13,9 4 2 9 5 SSE 1017,1 28 21 0,0
21.10.2017 13:00:00 14,0 11,2 13,9 13,3 12,5 13,9 9 5 20 11 S 1018,4 24 0 0,0
21.10.2017 12:00:00 12,5 10,2 11,6 12,2 12,4 13,9 9 5 13 7 S 1019,5 17 0 0,5
21.10.2017 11:00:00 12,1 11,3 11,9 11,8 12,4 13,9 4 2 17 9 E 1019,4 13 0 0,0
21.10.2017 10:00:00 11,5 10,6 11,2 11,4 12,4 13,9 10 5 13 7 S 1019,5 8 0 0,6
21.10.2017 09:00:00 11,5 9,8 10,7 11,2 12,4 13,9 5 3 12 7 SSW 1019,4 14 0 0,2
21.10.2017 08:00:00 11,4 9,2 10,8 11,0 12,4 13,9 3 2 7 4 NNE 1018,5 25 0 0,0
21.10.2017 07:00:00 11,0 8,6 10,0 10,9 12,5 13,9 5 3 8 4 ESE 1018,0 30 0 0,0
21.10.2017 06:00:00 10,6 8,5 9,8 10,8 12,6 13,9 4 2 7 4 E 1018,4 29 0 0,0
21.10.2017 05:00:00 11,4 8,9 10,1 10,8 12,7 13,9 3 2 8 4 SE 1018,3 29 0 0,0
21.10.2017 04:00:00 10,2 8,0 8,8 10,8 12,9 13,9 5 3 10 5 E 1018,7 23 0 0,0
21.10.2017 03:00:00 11,4 8,2 8,8 11,0 13,0 13,9 3 2 10 6 ESE 1018,9 26 0 0,0
21.10.2017 02:00:00 13,8 8,2 10,9 11,2 13,2 13,9 8 5 13 7 S 1018,4 38 0 0,0
21.10.2017 01:00:00 12,8 7,6 9,0 11,2 13,4 13,9 10 5 14 7 S 1018,9 35 0 0,0
21.10.2017 00:00:00 13,1 7,5 10,6 11,6 13,7 13,9 7 4 9 5 S 1018,9 37 0 0,0
20.10.2017 23:00:00 12,9 7,4 10,4 11,9 13,9 13,9 6 3 9 5 SSW 1018,8 36 0 0,0
20.10.2017 22:00:00 10,8 7,3 9,3 12,4 14,2 13,9 7 4 12 6 S 1019,0 29 0 0,0
20.10.2017 21:00:00 11,8 7,3 8,3 12,8 14,4 13,9 3 2 6 4 ENE 1018,0 32 0 0,0
20.10.2017 20:00:00 13,8 7,3 9,5 13,7 14,7 13,9 3 2 14 8 E 1017,4 37 0 0,0
20.10.2017 19:00:00 13,8 8,5 10,2 14,9 14,7 13,9 10 5 12 6 E 1016,9 44 0 0,0
20.10.2017 18:00:00 17,5 7,0 12,8 16,6 14,6 13,9 5 3 6 4 E 1015,9 47 39 0,0
20.10.2017 17:00:00 20,4 5,9 19,7 17,8 14,2 13,9 3 2 6 3 SE 1015,1 51 60 0,0
20.10.2017 16:00:00 21,5 6,6 22,6 18,5 13,7 13,9 4 2 11 6 SW 1014,9 49 60 0,0
20.10.2017 15:00:00 21,0 7,3 25,3 18,5 13,0 13,9 7 4 13 7 W 1015,0 45 60 0,0
20.10.2017 14:00:00 20,5 7,8 25,8 17,9 12,3 13,9 6 3 11 6 W 1015,0 32 60 0,0
20.10.2017 13:00:00 19,8 6,9 25,5 16,4 11,7 13,9 6 4 13 7 WSW 1015,3 43 60 0,0
20.10.2017 12:00:00 18,5 7,7 21,3 14,3 11,3 13,9 10 5 13 7 S 1015,4 55 60 0,0
20.10.2017 11:00:00 15,4 7,4 18,7 12,0 11,0 13,9 4 2 14 8 ENE 1015,8 60 60 0,0
20.10.2017 10:00:00 12,7 5,9 13,9 9,6 11,0 13,9 11 6 18 10 S 1016,4 18 60 0,0
20.10.2017 09:00:00 8,1 5,5 8,0 8,1 11,1 13,9 3 1 9 5 E 1017,2 43 13 0,0
20.10.2017 08:00:00 8,2 5,6 5,2 7,9 11,3 13,9 4 2 14 7 SSE 1016,8 53 0 0,0
20.10.2017 07:00:00 9,0 5,0 5,1 7,9 11,6 13,9 5 3 11 6 WSW 1016,1 58 0 0,0
20.10.2017 06:00:00 7,1 5,3 4,2 8,2 11,8 13,9 7 4 10 5 E 1016,0 53 0 0,0
20.10.2017 05:00:00 6,2 4,7 4,2 8,4 12,1 13,9 10 5 12 6 ENE 1015,7 38 0 0,0
20.10.2017 04:00:00 7,0 5,7 3,9 8,7 12,3 13,9 8 4 10 6 E 1015,3 54 0 0,0
20.10.2017 03:00:00 7,3 5,4 4,3 9,1 12,6 13,9 9 5 11 6 ENE 1015,4 44 0 0,0
20.10.2017 02:00:00 8,1 6,0 4,9 9,5 12,9 14,0 8 4 11 6 NE 1015,5 46 0 0,0
20.10.2017 01:00:00 8,0 6,3 5,2 10,0 13,2 14,0 11 6 13 7 E 1015,4 44 0 0,0
20.10.2017 00:00:00 8,1 6,7 6,0 10,5 13,5 14,0 7 4 14 7 E 1015,7 31 0 0,0
19.10.2017 23:00:00 9,6 8,1 6,5 11,1 13,9 14,0 8 4 9 5 E 1015,8 29 0 0,0
19.10.2017 22:00:00 9,6 8,9 7,0 11,7 14,2 14,0 7 4 9 5 E 1015,7 15 0 0,0
19.10.2017 21:00:00 11,2 10,7 8,0 12,5 14,5 14,0 5 3 14 8 E 1015,4 7 0 0,0
19.10.2017 20:00:00 11,5 10,5 8,0 13,5 14,7 14,0 6 4 8 4 ENE 1015,4 9 0 0,0
19.10.2017 19:00:00 15,0 11,3 10,4 14,7 14,8 14,0 6 3 11 6 ENE 1014,3 20 0 0,0
19.10.2017 18:00:00 15,9 11,6 13,1 16,2 14,7 14,0 10 5 14 7 NE 1013,7 21 41 0,0
19.10.2017 17:00:00 18,0 10,7 17,1 17,5 14,4 14,0 12 6 20 11 ENE 1013,3 38 60 0,0
19.10.2017 16:00:00 18,8 10,7 20,0 18,4 13,9 14,0 14 8 18 10 ENE 1013,5 41 60 0,0
19.10.2017 15:00:00 19,5 8,4 22,1 18,7 13,3 14,0 10 5 16 9 ENE 1013,9 42 60 0,0
19.10.2017 14:00:00 19,6 9,2 22,8 18,1 12,6 14,0 9 5 15 8 NE 1014,3 38 60 0,0
19.10.2017 13:00:00 18,7 8,6 22,5 16,8 11,9 14,0 7 4 11 6 ENE 1015,0 42 60 0,0
19.10.2017 12:00:00 16,8 8,0 20,1 14,8 11,4 14,0 7 4 10 5 NE 1015,8 34 60 0,0
19.10.2017 11:00:00 14,9 9,6 21,6 12,4 11,2 14,0 3 2 8 5 W 1016,2 31 60 0,0
19.10.2017 10:00:00 12,1 6,9 14,5 9,9 11,1 14,0 3 2 10 5 NNE 1016,8 45 60 0,0
19.10.2017 09:00:00 8,1 5,7 7,9 8,0 11,3 14,0 6 3 11 6 E 1017,6 39 50 0,0
19.10.2017 08:00:00 5,8 4,6 3,5 7,6 11,6 14,0 4 2 8 4 E 1017,8 39 0 0,0
19.10.2017 07:00:00 6,4 4,6 3,8 7,8 11,8 14,0 5 3 8 4 E 1017,6 38 0 0,0
19.10.2017 06:00:00 5,9 4,9 2,9 8,2 12,1 14,0 7 4 9 5 ENE 1018,1 34 0 0,0
19.10.2017 05:00:00 7,3 4,8 3,9 8,5 12,4 14,0 5 3 10 5 WSW 1017,7 54 0 0,0
19.10.2017 04:00:00 7,2 5,0 3,2 8,9 12,7 14,0 6 4 10 6 ENE 1017,7 44 0 0,0
19.10.2017 03:00:00 7,5 4,9 4,1 9,3 13,0 14,0 6 3 10 5 E 1017,5 52 0 0,0
19.10.2017 02:00:00 7,6 6,1 5,1 9,8 13,4 14,0 5 3 7 4 ESE 1017,3 39 0 0,0
19.10.2017 01:00:00 8,8 6,9 5,2 10,3 13,7 14,0 3 2 8 4 E 1016,9 38 0 0,0
19.10.2017 00:00:00 8,5 7,3 5,9 10,9 14,0 14,0 8 4 8 5 E 1017,2 32 0 0,0
18.10.2017 23:00:00 10,1 8,3 6,1 11,5 14,4 14,0 6 3 8 5 E 1016,8 38 0 0,0
18.10.2017 22:00:00 10,4 9,5 7,2 12,2 14,7 14,0 8 4 10 5 E 1016,5 26 0 0,0
18.10.2017 21:00:00 10,7 10,2 8,0 13,1 15,0 14,0 4 2 7 4 E 1016,3 5 0 0,0
18.10.2017 20:00:00 12,5 11,4 9,2 14,1 15,2 14,0 5 3 9 5 E 1015,9 12 0 0,0
18.10.2017 19:00:00 14,0 11,7 9,5 15,5 15,3 14,0 6 3 12 6 E 1015,2 18 0 0,0
18.10.2017 18:00:00 17,0 12,1 13,4 17,1 15,2 14,0 8 5 12 6 E 1014,3 23 43 0,0
18.10.2017 17:00:00 20,1 10,5 19,6 18,4 14,9 14,0 3 1 8 4 SW 1013,4 30 60 0,0
18.10.2017 16:00:00 19,5 8,8 22,2 19,1 14,4 14,0 6 3 8 5 W 1013,8 35 60 0,0
18.10.2017 15:00:00 19,5 9,4 24,5 19,2 13,7 14,0 6 3 9 5 W 1014,1 35 60 0,0
18.10.2017 14:00:00 18,9 8,0 23,9 18,5 13,1 14,0 6 3 8 5 W 1014,8 34 60 0,0
18.10.2017 13:00:00 18,1 6,3 25,0 17,2 12,5 14,0 6 3 8 4 W 1015,7 28 60 0,0
18.10.2017 12:00:00 17,5 6,5 23,7 14,9 12,0 14,0 4 2 7 4 WSW 1016,2 60 60 0,0
18.10.2017 11:00:00 14,3 8,0 17,1 12,6 11,8 14,0 6 4 9 5 S 1017,2 70 60 0,0
18.10.2017 10:00:00 12,6 7,4 14,5 10,8 11,8 14,0 6 4 10 5 SSW 1018,0 57 60 0,0
18.10.2017 09:00:00 10,1 7,1 9,6 9,1 12,0 14,0 5 3 14 8 WSW 1018,5 62 32 0,0
18.10.2017 08:00:00 8,9 6,4 5,6 8,8 12,2 14,0 8 4 12 7 SSW 1018,8 70 0 0,0
18.10.2017 07:00:00 8,5 8,2 5,9 9,0 12,4 14,0 2 1 6 3 SE 1018,8 32 0 0,0
18.10.2017 06:00:00 8,0 7,4 5,5 9,4 12,7 14,0 3 1 9 5 NE 1019,1 24 0 0,0
18.10.2017 05:00:00 9,1 8,1 6,0 9,7 12,9 14,0 5 3 9 5 SSE 1019,2 33 0 0,0
18.10.2017 04:00:00 9,3 8,9 6,6 10,0 13,2 14,0 3 2 6 3 SW 1019,4 30 0 0,0
18.10.2017 03:00:00 8,3 7,8 6,0 10,4 13,4 14,0 5 3 9 5 SSE 1019,9 28 0 0,0
18.10.2017 02:00:00 10,2 9,9 8,3 10,8 13,7 14,0 4 2 10 5 SSW 1019,4 30 0 0,0
18.10.2017 01:00:00 10,4 9,4 7,3 11,2 14,0 14,0 3 2 5 3 E 1019,4 46 0 0,0
18.10.2017 00:00:00 10,3 9,3 7,4 11,7 14,3 14,0 0 0 11 6 N 1019,7 37 0 0,0
17.10.2017 23:00:00 10,3 9,5 8,1 12,2 14,6 14,0 8 4 9 5 E 1020,2 27 0 0,0
17.10.2017 22:00:00 12,2 11,1 8,7 12,8 14,9 14,0 6 3 8 4 SSE 1020,0 44 0 0,0
17.10.2017 21:00:00 12,1 11,3 9,8 13,5 15,1 14,0 8 5 11 6 E 1020,3 24 0 0,0
17.10.2017 20:00:00 13,4 11,2 10,1 14,4 15,4 14,0 5 3 8 5 ENE 1020,4 33 0 0,0
17.10.2017 19:00:00 15,3 11,8 10,3 15,5 15,5 14,0 5 3 8 5 ENE 1020,0 38 0 0,0
17.10.2017 18:00:00 17,2 12,3 13,8 16,9 15,4 14,0 8 4 12 6 ENE 1019,8 42 4 0,0
17.10.2017 17:00:00 18,9 11,4 17,5 18,2 15,2 13,9 10 5 14 7 NE 1020,0 52 29 0,0
17.10.2017 16:00:00 20,2 10,3 20,6 19,2 14,7 13,9 9 5 13 7 ENE 1020,2 65 60 0,0
17.10.2017 15:00:00 21,4 9,5 24,2 19,9 14,1 13,9 8 4 14 7 N 1020,7 62 60 0,0
17.10.2017 14:00:00 21,1 11,0 24,5 19,3 13,4 13,9 5 3 10 5 N 1021,7 43 60 0,0
17.10.2017 13:00:00 20,1 10,9 24,0 18,0 12,8 13,9 7 4 12 7 NNE 1022,8 40 60 0,0
17.10.2017 12:00:00 18,5 12,0 22,2 16,0 12,2 13,9 7 4 11 6 NNE 1024,0 39 60 0,0
17.10.2017 11:00:00 16,6 9,7 19,6 13,7 12,0 13,9 7 4 10 5 ENE 1024,7 59 60 0,0
17.10.2017 10:00:00 13,4 9,2 15,8 11,3 11,9 13,9 5 3 8 4 NE 1026,0 53 60 0,0
17.10.2017 09:00:00 11,1 7,7 11,1 9,4 12,0 13,9 2 1 14 8 S 1026,5 52 47 0,0
17.10.2017 08:00:00 10,1 7,6 7,0 8,8 12,3 13,9 6 4 13 7 S 1026,3 70 0 0,0
17.10.2017 07:00:00 8,6 7,7 4,8 9,1 12,5 13,9 3 2 13 7 SSW 1026,6 48 0 0,0
17.10.2017 06:00:00 7,4 6,5 5,5 9,4 12,8 13,9 10 6 12 7 ENE 1026,9 29 0 0,0
17.10.2017 05:00:00 8,3 7,3 5,4 9,8 13,0 13,9 9 5 10 6 E 1026,5 41 0 0,0
17.10.2017 04:00:00 9,7 8,0 5,5 10,1 13,3 13,9 3 2 12 6 SSE 1026,4 48 0 0,0
17.10.2017 03:00:00 9,5 7,9 6,6 10,5 13,6 13,9 4 2 7 4 E 1027,0 40 0 0,0
17.10.2017 02:00:00 9,7 8,1 6,8 10,9 13,9 13,9 6 3 8 4 ENE 1027,2 39 0 0,0
17.10.2017 01:00:00 10,1 8,5 7,2 11,4 14,2 13,9 8 4 9 5 E 1027,4 39 0 0,0
17.10.2017 00:00:00 10,6 8,9 7,6 11,9 14,5 13,9 6 3 8 4 E 1027,5 42 0 0,0
16.10.2017 23:00:00 11,5 9,6 9,1 12,4 14,8 13,9 0 0 10 5 N 1027,3 30 0 0,0
16.10.2017 22:00:00 11,9 9,7 8,9 13,1 15,2 13,9 8 4 10 6 E 1027,4 31 0 0,0
16.10.2017 21:00:00 12,9 10,6 9,1 14,0 15,5 13,9 3 2 11 6 ESE 1027,1 34 0 0,0
16.10.2017 20:00:00 14,1 11,4 10,4 15,0 15,7 13,9 8 4 10 5 E 1026,7 43 0 0,0
16.10.2017 19:00:00 17,5 12,1 11,6 16,3 15,8 13,9 10 5 12 6 E 1025,8 56 0 0,0
16.10.2017 18:00:00 19,3 13,0 15,6 18,0 15,6 13,9 9 5 13 7 ENE 1025,1 45 48 0,0
16.10.2017 17:00:00 21,6 12,2 21,3 19,1 15,2 13,9 5 3 9 5 NNE 1024,7 56 60 0,0
16.10.2017 16:00:00 21,5 6,8 24,2 19,8 14,7 13,9 6 3 8 4 W 1025,0 53 60 0,0
16.10.2017 15:00:00 21,4 7,4 26,0 19,9 14,1 13,9 6 3 10 5 WNW 1025,4 47 60 0,0
16.10.2017 14:00:00 20,5 9,0 26,4 19,4 13,4 13,9 8 4 10 5 W 1025,8 37 60 0,0
16.10.2017 13:00:00 20,2 8,3 26,8 18,1 12,7 13,9 5 3 9 5 W 1026,4 38 60 0,0
16.10.2017 12:00:00 19,9 9,2 25,9 16,2 12,2 13,9 3 1 6 4 W 1026,7 65 60 0,0
16.10.2017 11:00:00 18,0 8,5 22,1 13,8 11,9 13,9 3 2 8 5 S 1027,4 70 60 0,0
16.10.2017 10:00:00 15,3 9,7 15,7 11,5 11,8 13,9 0 0 6 3 N 1027,9 64 60 0,0
16.10.2017 09:00:00 10,4 8,6 10,6 9,6 12,0 13,9 7 4 9 5 ENE 1028,9 44 44 0,0
16.10.2017 08:00:00 8,5 7,9 6,6 9,0 12,2 13,9 6 3 8 4 E 1028,9 67 0 0,0
16.10.2017 07:00:00 9,8 9,0 6,6 9,3 12,4 13,9 4 2 8 5 SE 1028,6 70 0 0,0
16.10.2017 06:00:00 9,0 8,3 6,2 9,5 12,6 13,9 0 0 8 5 N 1028,8 68 0 0,0
16.10.2017 05:00:00 9,9 9,2 7,0 9,8 12,8 13,9 7 4 8 5 SE 1028,5 70 0 0,0
16.10.2017 04:00:00 9,6 8,7 6,9 10,1 13,1 13,8 7 4 10 5 E 1028,6 44 0 0,0
16.10.2017 03:00:00 9,8 9,0 7,4 10,4 13,3 13,8 5 3 8 4 ENE 1028,5 39 0 0,0

tt = Température de l'air
td = dewpoint
tt 5cm = Température de l'air 5cm
tt -5cm = Température de l'air -5cm
tt -20cm = Température de l'air -20cm
tt -100cm = Température de l'air -100cm
ff = Vitesse du vent
fx = gusts
dd = Direction du vent
ppp = reduced air pressure
vv = visibility
sd = Ensoleillement
rr = Quantités de précipitations

stations d'obs. à proximité